STARLINK-32631, 62235

Orbit data source: Space-Track

STARLINK-32631, 62235 is a payload satellite owned by SpaceX/Seattle (US) in LEO that was launched on Thu, 05 Dec 2024 UTC via an FALCON 9 launch vehicle from the Air Force Western Test Range (AFWTR). Payload-class satellites include a variety of spacecraft equipped with specific instruments for various scientific and technological missions. These include communications satellites like Starlink; space stations such as the ISS; scientific satellites like the Hubble; Earth observation satellites from companies like Planet Labs, Umbra, and HawkEye 360; GPS; miniature CubeSats for education and research; and military/defense satellites.

Loading next visibility...
Identifier
62235, 2024-231T
Orbit
LEO
Country
Flag of USUS
Related business
Manufacturer
SpaceX/Seattle
Mission
Operational Commercial Communications
Bus & Motor
STARLINK V2M, Unknown motor
Mass
730 kg wet, ~700 kg dry
Launch date (UTC)
2024-12-05 (11 months ago)
Launch vehicle
FALCON 9
Launch site
Air Force Western Test Range (AFWTR)
Object type
Payload
Rocket body
Debris
Shape & HBR
Box + 2 Pan, 17.7 m
Radar Cross Section
33.884 m², Large (>1 m²)

Expand to show TLE details & history
Last TLE update: 1 day ago

TLE from 1 day ago
0 STARLINK-32631
1 62235U 24231T   25314.96627005  .00033357  00000-0  11326-2 0  9996
2 62235  53.1612  38.1449 0001999  85.8232 274.2998 15.30218955 53764
Epoch: 2025-11-10T23:11Z
TLE epoch observation values (Epoch: 2025-11-10T23:11:25.732Z)
Latitude
0.00005°
Longitude
-0.07188°
Altitude
475.956 km
Speed
7.629 km/s
True Right ascension
02h 32m 34s
True Declination
0° 00' 00"
Sunlit
Object was in full shadow at epoch
Visualization orbit readout
Latitude
Unknown
Longitude
Unknown
Altitude
Unknown
Speed
Unknown
Apparent Right ascension
Unknown
Apparent Declination
Unknown
Sunlit
N/A
Visualization observer readout
Local Sidereal Time
01:39:06
Azimuth
Unknown
Elevation
Unknown
Doppler factor
Unknown
Orbital elements
Apogee altitude
476.785 km
Perigee altitude
474.045 km
Semi-major axis
6,853.552 km
Eccentricity
0.0002
Inclination
53.1612°
RAAN
38.1449°
Arg. of periapsis
85.8232°
True anomaly
274.27696°
Mean anomaly
274.2998°
Eccentric anomaly
274.28838°
Mean motion
3.82534 °/min
Orbital period
94.11 mins
BSTAR
0.0011326
Loading maneuver chart data...
Computing Atmospheric mass density...
Loading historical data...
Loading historical data...
Loading historical data...
Loading historical data...
Loading historical data...
Loading historical data...
Loading historical data...

Documentation

Showing up to 5 results
|